Location: ??????????
(54.8537°N, 38.8755°E)
Time: 22:00:16
(UTC+00:00)

Tiros 1 - Pass Details

Date: 21 September 2024
Orbit: 623 x 654 km, 48.4° (Epoch: 09 October)

Event Time Altitude Azimuth Distance (km) Brightness Sun altitude
Rises 13:50:16 0° 259° (W) 2,900 12.5 12.6°
Reaches altitude 10° 13:52:42 10° 251° (WSW) 1,994 13.6 12.3°
Maximum altitude 13:56:54 36° 185° (S) 985 8.5 11.7°
Drops below altitude 10° 14:01:07 10° 119° (ESE) 2,003 9.3 11.1°
Sets 14:03:34 0° 111° (ESE) 2,914 10.0 10.8°
